Location: Churchill Northern Studies Centre
(58.7378°N, 93.8201°W)
Time: 04:15:23
(UTC-05:00)

OTV 5 (USA 277) - Visible Passes

Search period start: 24 September 2018 00:00
Search period end: 04 October 2018 00:00
Orbit: 387 x 394 km, 54.5° (Epoch: 08 September)

Date Brightness Start Highest point End Pass type
(mag) Time Alt. Az. Time Alt. Az. Time Alt. Az.
30 Sep ? 05:44:35 10° SSE 05:45:36 11° SE 05:46:38 10° ESE visible
01 Oct ? 06:22:05 10° SSW 06:24:37 22° SSE 06:27:11 10° ESE visible
02 Oct ? 05:26:50 11° S 05:28:32 16° SSE 05:30:32 10° ESE visible
03 Oct ? 04:32:43 10° SE 04:32:43 10° SE 04:33:01 10° SE visible
03 Oct ? 06:05:07 12° SW 06:07:38 27° SSE 06:10:25 10° E visible
